Retour au catalogue

STARLINK-34408

ActifCommunicationsVLEO
NORAD 64363·PAYLOAD·🇺🇸 United States

Lancé Jun 13, 2025 depuis Vandenberg Space Force Base

Loading…

Prochains Passages (prochaines 24 heures)

TLE

FraisSource: CelesTrak SupGP

Époque: Sep 14, 2026, 23:00 UTC

1 64363C 25126V   26257.95881944  .00071678  00000+0  24941-2 0  2575
2 64363  69.9998 275.6270 0003274 267.0682  68.9398 15.29533981    10

Suivez STARLINK-34408 en temps réel avec AllMySat

Download on the App Store